Overview Statistics Trail Chart Weather Telemetry Raw packets
 

This is the latest recevied weather packets stored in our database for station/object K9MWD. If no packets are shown the sender has not sent any weather packets the latest 10 day(s).

<< 69 70 71 72 73 74 75 >>
Time Temp. Humidity Pressure Rain* Wind** Luminosity Snow
1788142811 32.78° C 45% 1013.7 hPa 0 mm - 0 W/m² -
1788142509 32.78° C 44% 1013.5 hPa 0 mm - 0 W/m² -
1788142206 32.78° C 44% 1013.4 hPa 0 mm - 0 W/m² -
1788141901 32.78° C 44% 1013.4 hPa 0 mm - 0 W/m² -
1788141601 33.33° C 44% 1013.5 hPa 0 mm - 0 W/m² -
1788141297 33.33° C 43% 1013.4 hPa 0 mm - 0 W/m² -
1788140992 33.33° C 44% 1013.2 hPa 0 mm - 0 W/m² -
1788140687 33.33° C 44% 1013.2 hPa 0 mm - 0 W/m² -
1788140382 33.33° C 44% 1013.2 hPa 0 mm - 0 W/m² -
1788140078 33.89° C 43% 1013.1 hPa 0 mm - 0 W/m² -
1788139778 33.89° C 42% 1013.1 hPa 0 mm - 0 W/m² -
1788139473 33.89° C 42% 1013.1 hPa 0 mm - 0 W/m² -
1788139167 33.89° C 42% 1013 hPa 0 mm - 0 W/m² -
1788138862 33.89° C 42% 1012.9 hPa 0 mm - 0 W/m² -
1788138558 34.44° C 41% 1013 hPa 0 mm - 0 W/m² -
1788138258 34.44° C 41% 1012.9 hPa 0 mm - 1 W/m² -
1788137953 34.44° C 41% 1012.7 hPa 0 mm - 2 W/m² -
1788137649 35° C 40% 1012.9 hPa 0 mm - 4 W/m² -
1788137343 35° C 40% 1012.8 hPa 0 mm - 7 W/m² -
1788137040 35° C 39% 1012.7 hPa 0 mm - 11 W/m² -
1788136735 35.56° C 39% 1012.7 hPa 0 mm - 15 W/m² -
1788136431 35.56° C 38% 1012.7 hPa 0 mm - 20 W/m² -
1788136130 35.56° C 38% 1012.7 hPa 0 mm - 25 W/m² -
1788135829 36.11° C 37% 1012.7 hPa 0 mm - 29 W/m² -
1788135525 36.11° C 37% 1012.7 hPa 0 mm - 35 W/m² -

* Rain latest hour (hover to see other rain measurements)
** Current wind speed in m/s (hover to see current wind gust speed)